FW7499 Weather Reports


time (UTC)temp
C
wind
direction
speed
KPH
gust
KPH
rain 1hr
cm
rain 24hr
cm
rain mn
cm
humidity
%
barometer
mb
20260507232007 21 342 3.2 14.5 0.00 0.00 0.00 24 1008.4
20260507231520 21 325 1.6 14.5 0.00 0.00 0.00 28 1008.3
20260507231009 22 312 1.6 14.5 0.00 0.00 0.00 27 1008.4
20260507230507 22 308 4.8 12.9 0.00 0.00 0.00 27 1008.3
20260507230023 22 315 4.8 12.9 0.00 0.00 0.00 28 1008.3
20260507225510 22 301 3.2 12.9 0.00 0.00 0.00 26 1008.3
20260507225007 22 326 1.6 14.5 0.00 0.00 0.00 29 1008.2
20260507224527 22 310 4.8 14.5 0.00 0.00 0.00 30 1008.3
20260507224007 22 314 3.2 12.9 0.00 0.00 0.00 29 1008.3
20260507223510 22 323 0.0 12.9 0.00 0.00 0.00 28 1008.3
20260507223027 22 327 4.8 14.5 0.00 0.00 0.00 28 1008.5
20260507222509 22 294 4.8 14.5 0.00 0.00 0.00 29 1008.5
20260507222007 22 311 6.4 14.5 0.00 0.00 0.00 27 1008.5
20260507221503 22 319 6.4 14.5 0.00 0.00 0.00 29 1008.5
20260507221002 22 331 4.8 12.9 0.00 0.00 0.00 27 1008.5
20260507220502 22 275 1.6 17.7 0.00 0.00 0.00 31 1008.6
20260507220018 22 317 4.8 17.7 0.00 0.00 0.00 29 1008.4
20260507215503 22 319 9.7 17.7 0.00 0.00 0.00 28 1008.5
20260507215003 22 309 4.8 11.3 0.00 0.00 0.00 28 1008.6
20260507214510 22 360 3.2 14.5 0.00 0.00 0.00 31 1008.5
20260507214003 22 319 3.2 14.5 0.00 0.00 0.00 30 1008.6
20260507213503 22 221 1.6 16.1 0.00 0.00 0.00 27 1008.7
20260507213009 22 339 6.4 16.1 0.00 0.00 0.00 29 1008.7
20260507212505 22 340 3.2 14.5 0.00 0.00 0.00 30 1008.7
20260507212003 22 217 4.8 14.5 0.00 0.00 0.00 28 1008.7
20260507211512 22 346 4.8 22.5 0.00 0.00 0.00 27 1008.6
20260507211005 22 315 9.7 22.5 0.00 0.00 0.00 28 1008.8
20260507210514 22 321 4.8 14.5 0.00 0.00 0.00 28 1008.8
20260507210003 22 346 4.8 17.7 0.00 0.00 0.00 30 1008.7
20260507205505 22 314 4.8 17.7 0.00 0.00 0.00 28 1008.8
20260507205007 22 340 9.7 16.1 0.00 0.00 0.00 28 1008.9
20260507204508 22 316 9.7 16.1 0.00 0.00 0.00 32 1008.9
20260507204003 22 11 4.8 19.3 0.00 0.00 0.00 30 1008.9
20260507203503 22 341 6.4 19.3 0.00 0.00 0.00 30 1009.1
20260507203007 22 340 3.2 16.1 0.00 0.00 0.00 32 1009.0
20260507202504 22 296 4.8 17.7 0.00 0.00 0.00 28 1009.1
20260507202004 22 302 6.4 17.7 0.00 0.00 0.00 28 1009.1
20260507201505 22 351 1.6 11.3 0.00 0.00 0.00 29 1009.1
20260507201004 22 296 1.6 12.9 0.00 0.00 0.00 28 1009.2
20260507200504 22 263 1.6 20.9 0.00 0.00 0.00 31 1009.1
20260507200014 22 338 4.8 20.9 0.00 0.00 0.00 32 1009.2
20260507195507 22 302 3.2 14.5 0.00 0.00 0.00 31 1009.0
20260507195003 22 311 6.4 14.5 0.00 0.00 0.00 32 1009.0
20260507194510 22 336 4.8 14.5 0.00 0.00 0.00 34 1009.0
20260507194007 22 346 3.2 16.1 0.00 0.00 0.00 29 1009.0
20260507193509 22 355 0.0 17.7 0.00 0.00 0.00 37 1009.0
20260507193008 22 338 3.2 17.7 0.00 0.00 0.00 36 1009.0
20260507192503 22 321 3.2 17.7 0.00 0.00 0.00 36 1009.0
20260507192003 22 319 1.6 17.7 0.00 0.00 0.00 37 1009.0
20260507191509 22 240 4.8 16.1 0.00 0.00 0.00 35 1009.0
20260507191003 22 322 6.4 16.1 0.00 0.00 0.00 35 1009.0
20260507190508 21 238 3.2 8.0 0.00 0.00 0.00 37 1009.1
20260507190014 21 309 3.2 14.5 0.00 0.00 0.00 34 1009.0
20260507185503 21 69 3.2 14.5 0.00 0.00 0.00 35 1009.1
20260507185006 21 307 4.8 16.1 0.00 0.00 0.00 37 1009.2
20260507184511 21 34 4.8 19.3 0.00 0.00 0.00 38 1009.2
20260507184007 21 298 4.8 19.3 0.00 0.00 0.00 36 1009.2
20260507183502 21 323 4.8 19.3 0.00 0.00 0.00 35 1009.3
20260507183008 21 202 3.2 19.3 0.00 0.00 0.00 34 1009.4
20260507182508 21 301 4.8 12.9 0.00 0.00 0.00 34 1009.4
20260507182011 21 302 3.2 12.9 0.00 0.00 0.00 34 1009.5
20260507181515 21 257 3.2 17.7 0.00 0.00 0.00 41 1009.7
20260507181006 21 292 6.4 17.7 0.00 0.00 0.00 38 1009.6
20260507180506 21 317 6.4 17.7 0.00 0.00 0.00 39 1009.7
20260507180010 20 231 3.2 16.1 0.00 0.00 0.00 36 1009.7
20260507175508 21 300 4.8 16.1 0.00 0.00 0.00 38 1009.7
20260507175006 21 352 4.8 19.3 0.00 0.00 0.00 42 1009.8
20260507174510 20 279 8.0 19.3 0.00 0.00 0.00 39 1009.8
20260507174004 20 352 6.4 14.5 0.00 0.00 0.00 34 1009.9
20260507173505 20 143 3.2 12.9 0.00 0.00 0.00 36 1009.9
20260507173033 20 82 3.2 14.5 0.00 0.00 0.00 38 1009.9
20260507172506 19 261 3.2 16.1 0.00 0.00 0.00 38 1010.1
20260507172006 19 336 6.4 16.1 0.00 0.00 0.00 38 1010.1
20260507171519 19 294 4.8 14.5 0.00 0.00 0.00 37 1010.2
20260507171005 20 279 1.6 12.9 0.00 0.00 0.00 42 1010.2
20260507170507 19 266 3.2 12.9 0.00 0.00 0.00 43 1010.2
20260507170017 19 351 3.2 12.9 0.00 0.00 0.00 41 1010.4
20260507165505 19 122 3.2 19.3 0.00 0.00 0.00 37 1010.4
20260507165006 18 44 4.8 19.3 0.00 0.00 0.00 42 1010.6
20260507164515 18 229 3.2 16.1 0.00 0.00 0.00 40 1010.6
20260507164007 18 247 4.8 16.1 0.00 0.00 0.00 38 1010.7
20260507163507 18 276 4.8 14.5 0.00 0.00 0.00 38 1010.7
20260507163012 18 281 3.2 14.5 0.00 0.00 0.00 39 1010.9
20260507162508 18 318 1.6 8.0 0.00 0.00 0.00 44 1010.8
20260507162006 18 38 0.0 11.3 0.00 0.00 0.00 46 1010.9
20260507161519 17 195 3.2 14.5 0.00 0.00 0.00 45 1010.9
20260507161006 17 212 3.2 14.5 0.00 0.00 0.00 42 1011.0
20260507160506 17 223 3.2 12.9 0.00 0.00 0.00 46 1011.0
20260507160024 17 217 1.6 8.0 0.00 0.00 0.00 45 1011.1
20260507155508 17 305 0.0 8.0 0.00 0.00 0.00 47 1011.2
20260507155009 16 232 3.2 9.7 0.00 0.00 0.00 49 1011.3
20260507154524 16 276 3.2 12.9 0.00 0.00 0.00 52 1011.3
20260507154007 16 281 3.2 12.9 0.00 0.00 0.00 51 1011.4
20260507153504 16 254 0.0 8.0 0.00 0.00 0.00 53 1011.4
20260507153014 16 333 3.2 12.9 0.00 0.00 0.00 53 1011.5
20260507152508 15 263 1.6 12.9 0.00 0.00 0.00 53 1011.5
20260507152006 15 259 1.6 9.7 0.00 0.00 0.00 54 1011.6
20260507151519 15 254 1.6 11.3 0.00 0.00 0.00 58 1011.5
20260507151004 15 281 3.2 11.3 0.00 0.00 0.00 55 1011.6
20260507150509 15 324 1.6 14.5 0.00 0.00 0.00 58 1011.6
20260507150019 14 306 4.8 17.7 0.00 0.00 0.00 57 1011.6
20260507145509 14 260 4.8 17.7 0.00 0.00 0.00 56 1011.7
20260507145007 14 301 3.2 16.1 0.00 0.00 0.00 57 1011.8
20260507144518 14 219 3.2 12.9 0.00 0.00 0.00 59 1011.8
20260507144010 13 319 3.2 11.3 0.00 0.00 0.00 58 1011.8
20260507143505 13 303 3.2 12.9 0.00 0.00 0.00 59 1011.8
20260507143027 12 234 3.2 12.9 0.00 0.00 0.00 60 1011.8
20260507142507 12 243 1.6 9.7 0.00 0.00 0.00 63 1011.9
20260507142012 12 327 1.6 12.9 0.00 0.00 0.00 64 1011.9
20260507141517 12 276 3.2 14.5 0.00 0.00 0.00 63 1012.0
20260507141008 12 63 3.2 14.5 0.00 0.00 0.00 65 1012.0
20260507140507 12 257 0.0 12.9 0.00 0.00 0.00 68 1012.1
20260507140022 12 306 1.6 12.9 0.00 0.00 0.00 66 1012.2
20260507135506 11 305 1.6 11.3 0.00 0.00 0.00 66 1012.2
20260507135005 11 321 0.0 9.7 0.00 0.00 0.00 68 1012.2
20260507134527 11 298 0.0 9.7 0.00 0.00 0.00 69 1012.2
20260507134010 10 263 3.2 12.9 0.00 0.00 0.00 69 1012.2
20260507133506 10 244 3.2 12.9 0.00 0.00 0.00 70 1012.2
20260507133022 10 278 3.2 11.3 0.00 0.00 0.00 71 1012.2
20260507132505 10 127 0.0 12.9 0.00 0.00 0.00 73 1012.1
20260507132012 10 194 1.6 14.5 0.00 0.00 0.00 74 1012.1
20260507131504 9 302 4.8 16.1 0.00 0.00 0.00 74 1012.2
20260507131004 9 336 3.2 16.1 0.00 0.00 0.00 76 1012.3
20260507130508 8 236 4.8 11.3 0.00 0.00 0.00 77 1012.4
20260507130017 8 239 1.6 11.3 0.00 0.00 0.00 78 1012.4
20260507125507 8 300 3.2 12.9 0.00 0.00 0.00 79 1012.5
20260507125004 8 226 1.6 12.9 0.00 0.00 0.00 81 1012.5
20260507124508 8 205 1.6 12.9 0.00 0.00 0.00 80 1012.4
20260507124003 8 5 3.2 12.9 0.00 0.00 0.00 79 1012.5
20260507123503 8 228 3.2 14.5 0.00 0.00 0.00 79 1012.5
20260507123009 8 217 0.0 14.5 0.00 0.00 0.00 79 1012.5
20260507122503 8 283 0.0 11.3 0.00 0.00 0.00 77 1012.5
20260507122008 8 304 1.6 11.3 0.00 0.00 0.00 75 1012.6
20260507121510 8 245 0.0 11.3 0.00 0.00 0.00 75 1012.6
20260507121004 7 213 0.0 14.5 0.00 0.00 0.00 76 1012.6
20260507120508 7 265 1.6 14.5 0.00 0.00 0.00 76 1012.6
20260507120006 7 246 3.2 14.5 0.00 0.00 0.00 77 1012.5
20260507115505 7 297 1.6 6.4 0.00 0.00 0.00 77 1012.5
20260507115010 7 251 1.6 11.3 0.00 0.00 0.00 77 1012.5
20260507114507 7 277 3.2 14.5 0.00 0.00 0.00 76 1012.5
20260507114003 7 303 0.0 14.5 0.00 0.00 0.00 76 1012.5
20260507113504 7 50 0.0 11.3 0.00 0.00 0.00 76 1012.5
20260507113012 7 273 3.2 11.3 0.00 0.00 0.00 76 1012.5
20260507112508 7 285 1.6 12.9 0.00 0.00 0.00 76 1012.5
20260507112004 7 274 3.2 12.9 0.00 0.00 0.00 76 1012.5
20260507111509 7 128 0.0 11.3 0.00 0.00 0.00 76 1012.5
20260507111008 7 238 1.6 11.3 0.00 0.00 0.00 75 1012.5
20260507110503 7 344 1.6 11.3 0.00 0.00 0.00 75 1012.5
20260507110015 7 333 3.2 11.3 0.00 0.00 0.00 75 1012.5
20260507105504 7 252 3.2 11.3 0.00 0.00 0.00 75 1012.5
20260507105004 7 260 1.6 11.3 0.00 0.00 0.00 75 1012.5
20260507104510 7 207 3.2 12.9 0.00 0.00 0.00 75 1012.4
20260507104006 7 257 4.8 12.9 0.00 0.00 0.00 75 1012.5
20260507103508 7 276 1.6 11.3 0.00 0.00 0.00 75 1012.5
20260507103007 7 308 3.2 12.9 0.00 0.00 0.00 75 1012.4
20260507102504 7 306 3.2 12.9 0.00 0.00 0.00 75 1012.3
20260507102008 7 271 1.6 11.3 0.00 0.00 0.00 75 1012.5
20260507101507 7 30 0.0 9.7 0.00 0.00 0.00 75 1012.4
20260507101004 7 218 1.6 9.7 0.00 0.00 0.00 75 1012.5
20260507100506 7 59 0.0 4.8 0.00 0.00 0.00 75 1012.5
20260507100017 7 197 0.0 4.8 0.00 0.00 0.00 74 1012.6
20260507095503 7 179 0.0 8.0 0.00 0.00 0.00 74 1012.7
20260507095011 7 29 1.6 8.0 0.00 0.00 0.00 74 1012.7
20260507094512 7 231 0.0 3.2 0.00 0.00 0.00 73 1012.6
20260507094007 7 89 0.0 4.8 0.00 0.00 0.00 73 1012.8
20260507093505 7 294 0.0 8.0 0.00 0.00 0.00 72 1012.8
20260507093007 7 87 0.0 9.7 0.00 0.00 0.00 72 1012.9
20260507092507 7 249 1.6 9.7 0.00 0.00 0.00 72 1012.9
20260507092009 7 276 1.6 6.4 0.00 0.00 0.00 72 1012.9
20260507091514 7 279 0.0 14.5 0.00 0.00 0.00 71 1012.9
20260507091014 7 167 3.2 14.5 0.00 0.00 0.00 71 1013.0
20260507090504 8 344 1.6 14.5 0.00 0.00 0.00 70 1013.1
20260507090016 7 251 1.6 14.5 0.00 0.00 0.00 70 1013.1
20260507085503 7 246 1.6 6.4 0.00 0.00 0.00 70 1013.2
20260507085007 8 289 1.6 11.3 0.00 0.00 0.00 70 1013.3
20260507084521 8 111 0.0 11.3 0.00 0.00 0.00 69 1013.3
20260507084004 8 158 0.0 11.3 0.00 0.00 0.00 69 1013.4
20260507083507 8 239 3.2 11.3 0.00 0.00 0.00 68 1013.4
20260507083020 8 265 1.6 11.3 0.00 0.00 0.00 69 1013.5
20260507082503 7 107 0.0 11.3 0.00 0.00 0.00 68 1013.5
20260507082010 7 266 0.0 11.3 0.00 0.00 0.00 68 1013.6
20260507081522 8 28 1.6 9.7 0.00 0.00 0.00 67 1013.6
20260507081007 7 346 3.2 9.7 0.00 0.00 0.00 66 1013.7
20260507080506 7 236 0.0 6.4 0.00 0.00 0.00 66 1013.7
20260507080016 7 207 0.0 6.4 0.00 0.00 0.00 65 1013.9
20260507075508 7 218 0.0 4.8 0.00 0.00 0.00 65 1013.9
20260507075004 7 186 0.0 6.4 0.00 0.00 0.00 65 1014.0
20260507074512 7 265 0.0 12.9 0.00 0.00 0.00 64 1014.0
20260507074004 7 285 1.6 12.9 0.00 0.00 0.00 64 1014.0
20260507073508 7 225 0.0 4.8 0.00 0.00 0.00 63 1014.1
20260507073016 7 277 1.6 4.8 0.00 0.00 0.00 63 1014.1
20260507072507 7 251 0.0 6.4 0.00 0.00 0.00 62 1014.2
20260507072008 7 248 0.0 6.4 0.00 0.00 0.00 62 1014.3
20260507071522 7 274 0.0 1.6 0.00 0.00 0.00 61 1014.3
20260507071008 7 195 0.0 4.8 0.00 0.00 0.00 60 1014.3
20260507070504 7 207 0.0 4.8 0.00 0.00 0.00 59 1014.4
20260507070026 7 184 0.0 3.2 0.00 0.00 0.00 60 1014.4
20260507065503 7 250 0.0 1.6 0.00 0.00 0.00 61 1014.6
20260507065006 7 283 0.0 1.6 0.00 0.00 0.00 59 1014.7
20260507064524 7 279 0.0 3.2 0.00 0.00 0.00 58 1014.8
20260507064007 7 279 0.0 3.2 0.00 0.00 0.00 57 1014.8
20260507063508 7 163 0.0 3.2 0.00 0.00 0.00 56 1014.9
20260507063024 7 232 0.0 3.2 0.00 0.00 0.00 56 1014.9
20260507062507 7 229 0.0 3.2 0.00 0.00 0.00 56 1014.9
20260507062007 7 229 0.0 3.2 0.00 0.00 0.00 56 1014.9
20260507061518 6 217 0.0 1.6 0.00 0.00 0.00 58 1015.0
20260507061007 6 294 0.0 1.6 0.00 0.00 0.00 57 1015.0
20260507060506 6 293 0.0 0.0 0.00 0.00 0.00 58 1015.1
20260507060017 6 293 0.0 0.0 0.00 0.00 0.00 57 1015.1
20260507055510 6 293 0.0 0.0 0.00 0.00 0.00 58 1015.2
20260507055007 6 293 0.0 0.0 0.00 0.00 0.00 60 1015.2
20260507054524 6 292 0.0 0.0 0.00 0.00 0.00 62 1015.2
20260507054007 6 292 0.0 0.0 0.00 0.00 0.00 63 1015.3
20260507053509 6 293 0.0 0.0 0.00 0.00 0.00 64 1015.3
20260507053026 6 293 0.0 0.0 0.00 0.00 0.00 65 1015.3
20260507052505 6 293 0.0 0.0 0.00 0.00 0.00 66 1015.2
20260507052012 6 292 0.0 0.0 0.00 0.00 0.00 64 1015.2
20260507051525 6 293 0.0 0.0 0.00 0.00 0.00 62 1015.3
20260507051008 6 293 0.0 0.0 0.00 0.00 0.00 61 1015.4
20260507050506 6 292 0.0 0.0 0.00 0.00 0.00 63 1015.4
20260507050023 6 292 0.0 0.0 0.00 0.00 0.00 59 1015.3
20260507045506 6 292 0.0 0.0 0.00 0.00 0.00 58 1015.3
20260507045006 6 293 0.0 0.0 0.00 0.00 0.00 59 1015.4
20260507044543 6 293 0.0 0.0 0.00 0.00 0.00 58 1015.4
20260507044008 7 293 0.0 0.0 0.00 0.00 0.00 55 1015.5
20260507043509 7 293 0.0 0.0 0.00 0.00 0.00 54 1015.5
20260507043018 7 293 0.0 0.0 0.00 0.00 0.00 53 1015.5
20260507042510 7 292 0.0 0.0 0.00 0.00 0.00 56 1015.5
20260507042009 7 293 0.0 0.0 0.00 0.00 0.00 54 1015.7
20260507041507 7 292 0.0 0.0 0.00 0.00 0.00 54 1015.7
20260507041004 7 292 0.0 0.0 0.00 0.00 0.00 57 1015.7
20260507040504 7 292 0.0 0.0 0.00 0.00 0.00 55 1015.7
20260507040009 6 292 0.0 0.0 0.00 0.00 0.00 58 1015.8
20260507035507 6 293 0.0 0.0 0.00 0.00 0.00 59 1015.8
20260507035005 7 293 0.0 0.0 0.00 0.00 0.00 60 1015.8
20260507034507 7 292 0.0 0.0 0.00 0.00 0.00 57 1015.9
20260507034003 7 293 0.0 0.0 0.00 0.00 0.00 57 1015.8
20260507033505 7 292 0.0 0.0 0.00 0.00 0.00 53 1015.8
20260507033004 7 292 0.0 1.6 0.00 0.00 0.00 55 1015.8
20260507032504 7 292 0.0 1.6 0.00 0.00 0.00 53 1015.8
20260507032003 7 293 0.0 1.6 0.00 0.00 0.00 55 1015.8
20260507031503 8 296 0.0 0.0 0.00 0.00 0.00 53 1015.8
20260507031006 8 296 0.0 0.0 0.00 0.00 0.00 51 1015.8
20260507030509 8 296 0.0 0.0 0.00 0.00 0.00 49 1015.8
20260507030007 8 296 0.0 0.0 0.00 0.00 0.00 47 1015.8
20260507025503 8 296 0.0 0.0 0.00 0.00 0.00 48 1015.8
20260507025006 8 297 0.0 0.0 0.00 0.00 0.00 46 1015.9
20260507024505 8 296 0.0 0.0 0.00 0.00 0.00 47 1015.8
20260507024005 8 296 0.0 0.0 0.00 0.00 0.00 47 1015.8
20260507023505 9 296 0.0 0.0 0.00 0.00 0.00 47 1015.7
20260507023011 9 296 0.0 0.0 0.00 0.00 0.00 47 1015.7
20260507022504 9 296 0.0 0.0 0.00 0.00 0.00 46 1015.6
20260507022004 9 296 0.0 0.0 0.00 0.00 0.00 42 1015.5
20260507021514 10 296 0.0 0.0 0.00 0.00 0.00 42 1015.5
20260507021007 10 296 0.0 0.0 0.00 0.00 0.00 41 1015.5
20260507020503 10 296 0.0 0.0 0.00 0.00 0.00 42 1015.5
20260507020010 10 296 0.0 0.0 0.00 0.00 0.00 39 1015.5
20260507015503 10 296 0.0 0.0 0.00 0.00 0.00 41 1015.5
20260507015006 10 296 0.0 0.0 0.00 0.00 0.00 40 1015.5
20260507014508 11 296 0.0 0.0 0.00 0.00 0.00 40 1015.5
20260507014004 11 297 0.0 0.0 0.00 0.00 0.00 38 1015.4
20260507013504 11 296 0.0 0.0 0.00 0.00 0.00 37 1015.4
20260507013011 11 296 0.0 0.0 0.00 0.00 0.00 37 1015.5
20260507012502 11 296 0.0 0.0 0.00 0.00 0.00 35 1015.4
20260507012007 11 296 0.0 0.0 0.00 0.00 0.00 35 1015.4
20260507011509 12 296 0.0 0.0 0.00 0.00 0.00 34 1015.4
20260507011003 12 296 0.0 1.6 0.00 0.00 0.00 35 1015.4
20260507010506 12 296 0.0 1.6 0.00 0.00 0.00 34 1015.4
20260507010006 12 297 0.0 1.6 0.00 0.00 0.00 36 1015.5
20260507005508 13 296 0.0 3.2 0.00 0.00 0.00 33 1015.4
20260507005003 13 296 0.0 4.8 0.00 0.00 0.00 31 1015.5
20260507004511 13 296 1.6 4.8 0.00 0.00 0.00 33 1015.5
20260507004008 13 250 1.6 6.4 0.00 0.00 0.00 31 1015.5
20260507003504 13 320 0.0 8.0 0.00 0.00 0.00 31 1015.5
20260507003019 13 320 3.2 8.0 0.00 0.00 0.00 30 1015.6
20260507002506 13 309 1.6 8.0 0.00 0.00 0.00 31 1015.6
20260507002004 13 332 1.6 8.0 0.00 0.00 0.00 32 1015.6
20260507001520 14 348 0.0 9.7 0.00 0.00 0.00 32 1015.7
20260507001008 14 335 3.2 9.7 0.00 0.00 0.00 30 1015.7
20260507000506 14 327 1.6 14.5 0.00 0.00 0.00 32 1015.8
20260507000012 14 321 3.2 14.5 0.00 0.00 0.00 30 1015.8
20260506235504 15 312 1.6 12.9 0.00 0.00 0.00 31 1015.8
20260506235008 14 323 3.2 12.9 0.00 0.00 0.00 30 1015.8
20260506234510 15 328 4.8 14.5 0.00 0.00 0.00 29 1015.9
20260506234003 15 277 4.8 14.5 0.00 0.00 0.00 31 1015.9
20260506233506 15 317 4.8 14.5 0.00 0.00 0.00 31 1016.0
20260506233012 15 340 3.2 11.3 0.00 0.00 0.00 28 1016.0
20260506232508 15 348 3.2 19.3 0.00 0.00 0.00 30 1016.0